Tracking 28790 objects as of 19-Apr-2024
HD Live streaming from Space Station
objects crossing your sky now

BREEZE-M DEB

Track BREEZE-M DEB now!
10-day predictions


NORAD ID: 38640
Int'l Code: 2008-011CP
Perigee: 886.0 km
Apogee: 26,824.6 km
Inclination: 48.8 °
Period: 477.1 minutes
Semi major axis: 20226 km
RCS: 0.1432 m2 (medium)
Launch date: March 14, 2008
Source: Commonwealth of Independent States (former USSR) (CIS)
Launch site: TYURATAM MISSILE AND SPACE COMPLEX (TTMTR)

Note: This is SATELLITE DEBRIS
Your satellite tracking list
Your tracking list is empty




NASA's NSSDC Master Catalog

Two Line Element Set (TLE):
1 38640U 08011CP  24109.49675963  .00000630  00000-0  24451-1 0  9992
2 38640  48.7629 297.6989 6412095 354.0854   4.7896  3.01806607143682
Source of the keplerian elements: AFSPC